TimeCST,TemperatureF,Dew PointF,Humidity,Sea Level PressureIn,VisibilityMPH,Wind Direction,Wind SpeedMPH,Gust SpeedMPH,PrecipitationIn,Events,Conditions,WindDirDegrees,DateUTC
12:11 AM,28.4,23.0,80,30.08,7.0,Calm,Calm,-,N/A,,Clear,0,2012-11-19 06:11:00
12:31 AM,28.4,23.0,80,30.08,7.0,Calm,Calm,-,N/A,,Clear,0,2012-11-19 06:31:00
12:52 AM,28.4,24.8,86,30.07,7.0,Calm,Calm,-,N/A,,Clear,0,2012-11-19 06:52:00
1:11 AM,28.4,24.8,86,30.06,7.0,Calm,Calm,-,N/A,,Clear,0,2012-11-19 07:11:00
1:31 AM,28.4,23.0,80,30.06,7.0,Calm,Calm,-,N/A,,Clear,0,2012-11-19 07:31:00
1:51 AM,28.4,24.8,86,30.05,10.0,Calm,Calm,-,N/A,,Clear,0,2012-11-19 07:51:00
2:11 AM,28.4,24.8,86,30.05,7.0,Calm,Calm,-,N/A,,Clear,0,2012-11-19 08:11:00
2:31 AM,28.4,23.0,80,30.05,7.0,Calm,Calm,-,N/A,,Clear,0,2012-11-19 08:31:00
2:51 AM,28.4,23.0,80,30.05,7.0,Calm,Calm,-,N/A,,Clear,0,2012-11-19 08:51:00
3:11 AM,30.2,26.6,86,30.05,10.0,Calm,Calm,-,N/A,,Scattered Clouds,0,2012-11-19 09:11:00
3:31 AM,32.0,26.6,80,30.05,10.0,Calm,Calm,-,N/A,,Mostly Cloudy,0,2012-11-19 09:31:00
3:51 AM,32.0,26.6,80,30.05,10.0,Calm,Calm,-,N/A,,Mostly Cloudy,0,2012-11-19 09:51:00
4:11 AM,32.0,26.6,80,30.04,10.0,Calm,Calm,-,N/A,,Drizzle,0,2012-11-19 10:11:00
4:31 AM,32.0,26.6,80,30.04,10.0,Calm,Calm,-,N/A,,Scattered Clouds,0,2012-11-19 10:31:00
4:51 AM,32.0,26.6,80,30.04,10.0,Calm,Calm,-,N/A,,Clear,0,2012-11-19 10:51:00
5:11 AM,33.8,28.4,81,30.04,10.0,Calm,Calm,-,N/A,,Clear,0,2012-11-19 11:11:00
5:31 AM,28.4,24.8,86,30.04,7.0,Calm,Calm,-,N/A,,Clear,0,2012-11-19 11:31:00
5:51 AM,28.4,24.8,86,30.04,7.0,Calm,Calm,-,N/A,,Clear,0,2012-11-19 11:51:00
6:11 AM,33.8,28.4,81,30.04,10.0,NNE,3.5,-,N/A,,Clear,20,2012-11-19 12:11:00
6:31 AM,28.4,24.8,86,30.03,7.0,Calm,Calm,-,N/A,,Clear,0,2012-11-19 12:31:00
6:51 AM,30.2,24.8,80,30.04,7.0,NNE,3.5,-,N/A,,Clear,30,2012-11-19 12:51:00
7:11 AM,30.2,24.8,80,30.04,7.0,North,4.6,-,N/A,,Clear,10,2012-11-19 13:11:00
7:31 AM,32.0,26.6,80,30.05,10.0,North,4.6,-,N/A,,Clear,10,2012-11-19 13:31:00
7:51 AM,28.4,24.8,86,30.04,5.0,Calm,Calm,-,N/A,,Haze,0,2012-11-19 13:51:00
8:11 AM,33.8,28.4,81,30.05,7.0,Calm,Calm,-,N/A,Thunderstorm,Overcast,0,2012-11-19 14:11:00
8:31 AM,33.8,28.4,81,30.04,7.0,Calm,Calm,-,N/A,,Overcast,0,2012-11-19 14:31:00
8:51 AM,33.8,28.4,81,30.04,10.0,Calm,Calm,-,N/A,,Overcast,0,2012-11-19 14:51:00
9:11 AM,37.4,33.8,87,30.04,10.0,Calm,Calm,-,N/A,,Overcast,0,2012-11-19 15:11:00
9:31 AM,41.0,33.8,76,30.04,10.0,North,3.5,-,N/A,,Overcast,10,2012-11-19 15:31:00
9:52 AM,42.8,33.8,70,30.04,10.0,Calm,Calm,-,N/A,,Overcast,0,2012-11-19 15:52:00
10:11 AM,44.6,35.6,71,30.04,10.0,Calm,Calm,-,N/A,,Scattered Clouds,0,2012-11-19 16:11:00
10:31 AM,44.6,35.6,71,30.04,10.0,Calm,Calm,-,N/A,,Mostly Cloudy,0,2012-11-19 16:31:00
10:51 AM,44.6,35.6,71,30.03,10.0,Calm,Calm,-,N/A,,Overcast,0,2012-11-19 16:51:00
11:11 AM,44.6,35.6,71,30.03,10.0,Calm,Calm,-,N/A,,Overcast,0,2012-11-19 17:11:00
11:31 AM,44.6,35.6,71,30.02,10.0,Calm,Calm,-,N/A,,Overcast,0,2012-11-19 17:31:00
11:51 AM,42.8,37.4,81,30.02,10.0,Calm,Calm,-,0.01,,Overcast,0,2012-11-19 17:51:00
12:11 PM,44.6,37.4,76,30.01,10.0,Calm,Calm,-,N/A,,Overcast,0,2012-11-19 18:11:00
12:31 PM,44.6,37.4,76,30.01,10.0,Calm,Calm,-,N/A,Rain,Light Rain,0,2012-11-19 18:31:00
12:52 PM,44.6,37.4,76,30.00,10.0,Calm,Calm,-,N/A,,Overcast,0,2012-11-19 18:52:00
1:11 PM,44.6,37.4,76,30.00,10.0,NNE,3.5,-,N/A,,Overcast,20,2012-11-19 19:11:00
1:31 PM,46.4,37.4,71,30.00,10.0,Calm,Calm,-,N/A,,Overcast,0,2012-11-19 19:31:00
1:51 PM,46.4,37.4,71,29.99,10.0,ENE,3.5,-,N/A,,Overcast,60,2012-11-19 19:51:00
2:11 PM,46.4,37.4,71,29.99,10.0,ENE,3.5,-,N/A,,Overcast,60,2012-11-19 20:11:00
2:31 PM,46.4,37.4,71,30.00,10.0,Calm,Calm,-,N/A,,Overcast,0,2012-11-19 20:31:00
2:51 PM,46.4,37.4,71,29.99,10.0,Calm,Calm,-,N/A,,Overcast,0,2012-11-19 20:51:00
3:11 PM,48.2,37.4,66,29.99,10.0,Calm,Calm,-,N/A,,Overcast,0,2012-11-19 21:11:00
3:31 PM,46.4,35.6,66,29.99,10.0,Calm,Calm,-,N/A,,Mostly Cloudy,0,2012-11-19 21:31:00
3:51 PM,44.6,35.6,71,30.00,10.0,Calm,Calm,-,N/A,,Scattered Clouds,0,2012-11-19 21:51:00
4:12 PM,44.6,35.6,71,30.00,10.0,Calm,Calm,-,N/A,,Mostly Cloudy,0,2012-11-19 22:12:00
4:31 PM,42.8,35.6,76,30.00,10.0,Calm,Calm,-,N/A,,Overcast,0,2012-11-19 22:31:00
4:51 PM,42.8,35.6,76,30.01,10.0,NNW,3.5,-,N/A,,Mostly Cloudy,340,2012-11-19 22:51:00
5:12 PM,39.2,33.8,81,30.01,10.0,Calm,Calm,-,N/A,,Scattered Clouds,0,2012-11-19 23:12:00
5:31 PM,37.4,33.8,87,30.01,10.0,Calm,Calm,-,N/A,,Clear,0,2012-11-19 23:31:00
5:51 PM,37.4,32.0,81,30.01,10.0,NW,3.5,-,N/A,,Clear,310,2012-11-19 23:51:00
6:12 PM,35.6,30.2,81,30.01,10.0,Calm,Calm,-,N/A,,Clear,0,2012-11-20 00:12:00
6:31 PM,35.6,30.2,81,30.01,10.0,WNW,4.6,-,N/A,,Clear,300,2012-11-20 00:31:00
6:51 PM,35.6,30.2,81,30.01,10.0,WNW,3.5,-,N/A,,Clear,300,2012-11-20 00:51:00
7:12 PM,32.0,26.6,80,30.01,10.0,WNW,3.5,-,N/A,,Clear,300,2012-11-20 01:12:00
7:31 PM,33.8,28.4,81,30.01,10.0,Calm,Calm,-,N/A,,Clear,0,2012-11-20 01:31:00
7:51 PM,30.2,26.6,86,30.01,10.0,Calm,Calm,-,N/A,,Clear,0,2012-11-20 01:51:00
8:10 PM,30.2,26.6,86,30.01,10.0,Calm,Calm,-,N/A,,Clear,0,2012-11-20 02:10:00
8:31 PM,30.2,26.6,86,30.01,10.0,Calm,Calm,-,N/A,,Clear,0,2012-11-20 02:31:00
9:11 PM,30.2,26.6,86,30.00,10.0,Calm,Calm,-,N/A,,Clear,0,2012-11-20 03:11:00
9:31 PM,32.0,26.6,80,30.01,10.0,WSW,4.6,-,N/A,,Clear,250,2012-11-20 03:31:00
9:51 PM,33.8,28.4,81,30.01,10.0,Calm,Calm,-,N/A,,Clear,0,2012-11-20 03:51:00
10:11 PM,35.6,28.4,75,30.01,10.0,WNW,4.6,-,N/A,,Clear,290,2012-11-20 04:11:00
10:31 PM,39.2,33.8,81,30.01,10.0,NW,4.6,-,N/A,,Clear,310,2012-11-20 04:31:00
10:51 PM,39.2,33.8,81,30.02,10.0,WNW,4.6,-,N/A,,Clear,300,2012-11-20 04:51:00
11:12 PM,39.2,33.8,81,30.02,10.0,Calm,Calm,-,N/A,,Clear,0,2012-11-20 05:12:00
11:31 PM,37.4,32.0,81,30.02,10.0,Calm,Calm,-,N/A,,Clear,0,2012-11-20 05:31:00
11:51 PM,37.4,32.0,81,30.02,10.0,NW,3.5,-,N/A,,Clear,320,2012-11-20 05:51:00